[[{"header":{"parameterUnit":"m.s-1","parameterCategory":1,"la1":30.2991,"la2":30.254,"lo1":-89.0895,"lo2":-89.0444,"dy":0.0017,"dx":0.0017,"nx":28,"ny":28,"refTime":"2024-10-18T09:00:00:Z","depth":0,"parameterNumber":2,"parameterNumberName":"U-component_of_WINDS"},"data":[0,0,0,0,0,0,0,0,0,0,0,0,0,0,0,0,0,0,0,0,0,0,0,0,0,0,0,0,0,0,0,0,0,0,0,0,0,0,0,0,0,0,0,0,0,0,0,0,0,0,0,0,0,0,0,0,0,0,-4.5663,-4.5664,0,-4.573,-4.573,-4.5731,-4.5557,-4.5551,-4.5546,-4.5541,-4.5612,-4.5619,-4.5626,0,0,0,0,0,0,0,0,0,0,0,0,0,-4.5388,-4.5394,-4.5663,-4.5664,-4.5665,-4.5729,-4.573,-4.5731,-4.5558,-4.5551,-4.5545,-4.5538,-4.561,-4.5618,-4.5627,0,0,0,0,0,0,0,0,0,0,0,0,0,-4.5486,-4.5396,-4.5663,-4.5586,-4.558,-4.5729,-4.573,-4.5732,-4.5559,-4.5551,-4.5543,-4.5535,-4.5607,-4.5618,-4.5628,-4.5856,0,0,-4.566,-4.5664,0,0,0,0,0,0,0,0,-4.5481,-4.5497,-4.5597,-4.5592,-4.5585,-4.5626,-4.5659,-4.5773,-4.5561,-4.5567,-4.5541,-4.5531,-4.5624,-4.5633,-4.5663,-4.5859,-4.5863,-4.5661,-4.5667,-4.5672,-4.5675,0,0,0,0,0,0,0,-4.5474,-4.5493,-4.5689,-4.5598,-4.5591,-4.5549,-4.5554,-4.568,-4.5641,-4.5566,-4.5554,-4.5564,-4.5619,-4.5653,-4.5663,-4.5864,-4.5661,-4.567,-4.5676,-4.568,-4.6249,-4.6257,0,0,0,0,0,0,-4.5477,-4.5488,-4.5687,-4.5691,-4.5512,-4.556,-4.5566,-4.5622,-4.5639,-4.5634,-4.5571,-4.5555,-4.5639,-4.5651,-4.5665,-4.5933,-4.5672,-4.5681,-4.5687,-4.624,-4.6251,-4.6261,0,0,0,0,0,0,-4.5472,-4.5497,-4.5685,-4.5587,-4.5607,-4.5574,-4.5638,-4.5627,-4.5661,-4.5642,-4.5634,-4.5613,-4.5634,-4.5651,-4.5809,-4.5933,-4.5686,-4.5696,-4.623,-4.6244,-4.6256,-4.6471,0,0,0,0,0,0,-4.5465,-4.5496,-4.5582,-4.559,-4.5613,-4.5828,-4.5645,-4.5634,-4.5679,-4.566,-4.568,-4.5675,-4.5628,-4.5795,-4.582,-4.5943,-4.5704,-4.6219,-4.6236,-4.6252,-4.6453,-4.649,-4.6522,0,0,0,0,0,-4.5456,-4.5641,-4.5587,-4.5612,-4.572,-4.5836,-4.5849,-4.579,-4.569,-4.5776,-4.5764,-4.5674,-4.5915,-4.5812,-4.5839,-4.5968,-4.6211,-4.6231,-4.625,-4.6437,-4.6483,-4.6521,0,0,0,0,0,0,-4.5651,-4.5641,-4.5581,-4.5774,-4.5807,-4.5806,-4.5913,-4.5841,-4.5903,-4.5883,-4.5808,-4.5814,-4.5987,-4.5993,-4.5878,-4.6189,-4.6046,-4.6072,-4.6179,-4.6222,-4.6256,-4.6251,-4.5713,0,0,0,0,0,-4.5716,-4.5809,-4.5796,-4.5968,-4.5987,-4.5948,-4.5996,-4.5948,-4.5979,-4.5992,-4.5991,-4.6026,-4.6109,-4.6165,-4.6241,-4.6452,-4.6454,-4.6553,-4.6588,-4.6616,-4.6641,-4.6752,-4.6796,-4.6326,-4.6326,-4.6325,0,0,-4.5852,-4.5858,-4.5922,-4.6007,-4.6027,-4.6126,-4.5961,-4.6073,-4.6146,-4.6009,-4.6159,-4.616,-4.6193,-4.6379,-4.6461,-4.6389,-4.677,-4.6642,-4.6665,-4.6673,-4.6777,-4.6822,-4.6861,-4.6339,-4.6337,-4.6335,0,0,-4.6151,-4.6165,-4.6309,-4.6332,-4.6363,-4.6335,-4.637,-4.638,-4.6374,-4.6523,-4.6422,-4.6508,-4.6653,-4.668,-4.6714,-4.7021,-4.6941,-4.7048,-4.7229,-4.7339,-4.7376,-4.7408,-4.7518,-4.7558,-4.7071,-4.7072,-4.7072,0,-4.6317,-4.6462,-4.6393,-4.6512,-4.6552,-4.6431,-4.6577,-4.6602,-4.6657,-4.6688,-4.6606,-4.6784,-4.6798,-4.6989,-4.7064,-4.7094,-4.7132,-4.7046,-4.7376,-4.7407,-4.7437,-4.7541,-4.7582,-4.7085,-4.7083,-4.7082,-4.7081,0,-4.6664,-4.6766,-4.6879,-4.6933,-4.6986,-4.7118,-4.707,-4.7131,-4.7078,-4.7059,-4.7212,-4.7224,-4.7299,-4.734,-4.7291,-4.7524,-4.7478,-4.7388,-4.7243,-4.7496,-4.7592,-4.7631,-4.7103,-4.7098,-4.7095,-4.7091,0,0,-4.709,-4.7103,-4.7146,-4.7168,-4.7193,-4.727,-4.7396,-4.7468,-4.7523,-4.7564,-4.7668,-4.7793,-4.7708,-4.7746,-4.7697,-4.7794,-4.8036,-4.769,-4.769,-4.7755,-4.8294,-4.8363,-4.841,-4.7983,-4.799,-4.7996,-4.8291,0,-4.7385,-4.76,-4.7542,-4.7757,-4.785,-4.7735,-4.7845,-4.7872,-4.7857,-4.7934,-4.7918,-4.8007,-4.7889,-4.7911,-4.8001,-4.7988,-4.8144,-4.7965,-4.808,-4.8085,-4.8076,-4.8461,-4.8534,-4.8813,-4.8329,-4.8335,-4.834,0,-4.7759,-4.7813,-4.8038,-4.8045,-4.8082,-4.8182,-4.8242,-4.8317,-4.8345,-4.8327,-4.8369,-4.8301,-4.8425,-4.8278,-4.8449,-4.8329,-4.8371,-4.8372,-4.8381,-4.8391,-4.8228,-4.8481,-4.89,-4.8942,-4.8398,-4.8394,-4.8389,0,-4.8047,-4.8177,-4.8327,-4.835,-4.8362,-4.8435,-4.8444,-4.8463,-4.851,-4.8563,-4.8593,-4.8661,-4.8698,-4.8752,-4.8704,-4.8602,-4.8882,-4.8732,-4.8872,-4.8873,-4.8937,-4.8934,-4.937,-4.8964,-4.8963,-4.8963,-4.8962,0,-4.8384,-4.8526,-4.8456,-4.855,-4.8705,-4.8635,-4.8791,-4.8787,-4.8805,-4.8895,-4.88,-4.8887,-4.8817,-4.8898,-4.8861,-4.9008,-4.9026,-4.9015,-4.9004,-4.9025,-4.9026,-4.9052,-4.9032,-4.8974,-4.8971,-4.8969,-4.8967,0,-4.8733,-4.8692,-4.8849,-4.8847,-4.8849,-4.8964,-4.8963,-4.9049,-4.9026,-4.9141,-4.9164,-4.9129,-4.9219,-4.9176,-4.9271,-4.9245,-4.9435,-4.9397,-4.9425,-4.9416,-4.9558,-4.9546,-5.0027,-5.0087,-4.9643,-4.9647,-4.965,0,-4.8951,-4.9057,-4.9066,-4.9118,-4.9133,-4.922,-4.9266,-4.9202,-4.9254,-4.9293,-4.9375,-4.9456,-4.9518,-4.9667,-4.9651,-4.9723,-4.9686,-4.985,-4.9697,-4.9713,-4.9689,-4.9684,-4.9694,-4.9881,-4.9887,-4.9891,-4.9894,0,-4.9341,-4.9315,-4.9385,-4.9449,-4.9507,-4.9554,-4.9593,-4.9642,-4.9579,-4.9643,-4.9732,-4.978,-4.9876,-4.9958,-5.002,-5.0029,-4.9953,-4.9942,-4.9978,-5.0001,-5.0013,-5.0008,-4.951,-4.9932,-4.9928,-4.9925,-4.9923,-4.9922,-4.9631,-4.972,-4.974,-4.9821,-4.9843,-4.9881,-4.9961,-4.9948,-5.0022,-5.0093,-5.005,-5.0156,-5.018,-5.0255,-5.0275,-5.0357,-5.0292,-5.0344,-5.0358,-5.0372,-5.0391,-4.9999,-5.0368,-5.0367,-5.0365,-5.0365,-5.0364,0,-5.0017,-5.0024,-5.0099,-5.0156,-5.022,-5.0139,-5.0178,-5.0237,-5.0331,-5.0359,-5.0421,-5.0524,-5.0603,-5.0592,-5.0664,-5.0732,-5.0699,-5.0753,-5.0748,-5.0751,-5.0445,-5.0406,-5.0779,-5.0779,-5.0779,-5.0779,-5.0779,-5.0779,-5.0226,-5.0371,-5.0347,-5.0503,-5.0507,-5.0609,-5.0638,-5.0673,-5.0695,-5.0814,-5.0879,-5.087,-5.0883,-5.0955,-5.1024,-5.1018,-5.105,-5.1118,-5.11,-5.0814,-5.0773,-5.0734,-5.0697,-5.1125,-5.1125,-5.1399,-5.1402,-5.1404]},{"header":{"parameterUnit":"m.s-1","parameterCategory":1,"la1":30.2991,"la2":30.254,"lo1":-89.0895,"lo2":-89.0444,"dy":0.0017,"dx":0.0017,"nx":28,"ny":28,"refTime":"2024-10-18T09:00:00:Z","depth":0,"parameterNumber":3,"parameterNumberName":"V-component_of_WINDS"},"data":[0,0,0,0,0,0,0,0,0,0,0,0,0,0,0,0,0,0,0,0,0,0,0,0,0,0,0,0,0,0,0,0,0,0,0,0,0,0,0,0,0,0,0,0,0,0,0,0,0,0,0,0,0,0,0,0,0,0,-3.207,-3.207,0,-3.2098,-3.2099,-3.2099,-3.2078,-3.2077,-3.2076,-3.2076,-3.2103,-3.2104,-3.2106,0,0,0,0,0,0,0,0,0,0,0,0,0,-3.1993,-3.1995,-3.207,-3.207,-3.207,-3.2098,-3.2099,-3.2099,-3.2078,-3.2077,-3.2076,-3.2075,-3.2102,-3.2104,-3.2106,0,0,0,0,0,0,0,0,0,0,0,0,0,-3.2024,-3.1995,-3.2069,-3.2063,-3.2063,-3.2098,-3.2099,-3.2099,-3.2079,-3.2077,-3.2076,-3.2075,-3.2102,-3.2104,-3.2106,-3.2148,0,0,-3.2114,-3.2115,0,0,0,0,0,0,0,0,-3.2023,-3.2027,-3.2064,-3.2064,-3.2064,-3.2083,-3.2082,-3.2116,-3.2079,-3.2073,-3.2076,-3.2074,-3.2097,-3.21,-3.2108,-3.215,-3.2151,-3.2114,-3.2115,-3.2116,-3.2117,0,0,0,0,0,0,0,-3.2021,-3.2026,-3.2081,-3.2064,-3.2064,-3.2058,-3.2061,-3.2088,-3.2092,-3.2073,-3.2072,-3.2076,-3.2097,-3.2106,-3.2109,-3.2151,-3.2114,-3.2116,-3.2117,-3.2118,-3.2225,-3.2227,0,0,0,0,0,0,-3.2019,-3.2024,-3.208,-3.2082,-3.2039,-3.2061,-3.2064,-3.2078,-3.2092,-3.2093,-3.2077,-3.2074,-3.2103,-3.2106,-3.211,-3.2158,-3.2116,-3.2118,-3.212,-3.2224,-3.2226,-3.2227,0,0,0,0,0,0,-3.2018,-3.2025,-3.2079,-3.2053,-3.2059,-3.2063,-3.208,-3.208,-3.2089,-3.2095,-3.2095,-3.2085,-3.2102,-3.2106,-3.2138,-3.2158,-3.2119,-3.2122,-3.2222,-3.2224,-3.2226,-3.2255,0,0,0,0,0,0,-3.2016,-3.2024,-3.2041,-3.2053,-3.2061,-3.2108,-3.2081,-3.2081,-3.2093,-3.2091,-3.2103,-3.2104,-3.2101,-3.2135,-3.2141,-3.2161,-3.2123,-3.222,-3.2223,-3.2226,-3.2252,-3.2258,-3.2263,0,0,0,0,0,-3.2013,-3.2048,-3.2042,-3.2049,-3.2082,-3.2109,-3.2113,-3.211,-3.2095,-3.2111,-3.2114,-3.2103,-3.2156,-3.2138,-3.2145,-3.2166,-3.2219,-3.2222,-3.2226,-3.225,-3.2257,-3.2263,0,0,0,0,0,0,-3.2038,-3.205,-3.2043,-3.2083,-3.2095,-3.2106,-3.2126,-3.2118,-3.2135,-3.2131,-3.2126,-3.2129,-3.2162,-3.2168,-3.2148,-3.2206,-3.2185,-3.2189,-3.2201,-3.2208,-3.2213,-3.221,-3.2125,0,0,0,0,0,-3.2048,-3.207,-3.2079,-3.2113,-3.212,-3.2122,-3.2134,-3.2131,-3.2143,-3.2148,-3.2154,-3.2165,-3.2184,-3.2196,-3.2214,-3.2253,-3.2254,-3.2271,-3.2276,-3.228,-3.2284,-3.2303,-3.2309,-3.2238,-3.2238,-3.2238,0,0,-3.2069,-3.2078,-3.2093,-3.2119,-3.2128,-3.2149,-3.2127,-3.2151,-3.2167,-3.2151,-3.2181,-3.2186,-3.2198,-3.2234,-3.2249,-3.2239,-3.2304,-3.2284,-3.2288,-3.2289,-3.2307,-3.2313,-3.2319,-3.224,-3.224,-3.2239,0,0,-3.2118,-3.2128,-3.2157,-3.2166,-3.218,-3.2181,-3.2188,-3.22,-3.2202,-3.2233,-3.2221,-3.2239,-3.2272,-3.2281,-3.2289,-3.234,-3.2329,-3.2346,-3.2373,-3.2391,-3.2397,-3.2401,-3.2417,-3.2423,-3.235,-3.235,-3.235,0,-3.2142,-3.2175,-3.2173,-3.2197,-3.2208,-3.2196,-3.2223,-3.2233,-3.2252,-3.2259,-3.2247,-3.2287,-3.2295,-3.233,-3.2343,-3.2351,-3.2357,-3.2344,-3.2396,-3.2401,-3.2406,-3.2421,-3.2427,-3.2352,-3.2352,-3.2351,-3.2351,0,-3.2203,-3.2226,-3.2247,-3.2266,-3.2279,-3.2306,-3.2305,-3.2319,-3.2314,-3.2316,-3.2346,-3.2355,-3.2373,-3.2381,-3.2377,-3.2416,-3.2409,-3.2397,-3.2375,-3.2414,-3.2428,-3.2434,-3.2354,-3.2354,-3.2353,-3.2353,0,0,-3.2268,-3.2284,-3.2292,-3.2299,-3.2313,-3.233,-3.2355,-3.2373,-3.2384,-3.2398,-3.2417,-3.2445,-3.2433,-3.2443,-3.2439,-3.2456,-3.2493,-3.2441,-3.2442,-3.2449,-3.2534,-3.2541,-3.2548,-3.2486,-3.2488,-3.2488,-3.2532,0,-3.2316,-3.236,-3.2358,-3.2398,-3.2418,-3.2406,-3.2427,-3.2437,-3.2439,-3.2456,-3.2458,-3.2477,-3.2461,-3.2467,-3.2483,-3.2485,-3.2509,-3.2482,-3.2502,-3.2503,-3.2498,-3.2556,-3.2564,-3.2605,-3.2537,-3.2538,-3.2539,0,-3.2378,-3.2393,-3.2436,-3.2445,-3.2453,-3.2472,-3.2488,-3.2504,-3.2515,-3.2515,-3.2525,-3.2519,-3.2542,-3.2521,-3.2552,-3.2534,-3.2542,-3.2544,-3.2546,-3.2546,-3.2522,-3.2555,-3.2618,-3.2623,-3.2548,-3.2547,-3.2547,0,-3.2418,-3.2449,-3.2478,-3.2485,-3.2497,-3.2511,-3.2516,-3.2526,-3.2536,-3.2549,-3.2556,-3.2572,-3.258,-3.2592,-3.2589,-3.2575,-3.262,-3.2599,-3.2619,-3.2619,-3.2628,-3.2627,-3.269,-3.2637,-3.2637,-3.2637,-3.2637,0,-3.2471,-3.2497,-3.2496,-3.2514,-3.2542,-3.2538,-3.2566,-3.2569,-3.2578,-3.2595,-3.2586,-3.2601,-3.2598,-3.2613,-3.2611,-3.2636,-3.264,-3.264,-3.2639,-3.264,-3.2639,-3.2644,-3.264,-3.2638,-3.2638,-3.2638,-3.2637,0,-3.252,-3.2521,-3.2551,-3.256,-3.2563,-3.2583,-3.2589,-3.2605,-3.2606,-3.2628,-3.2633,-3.2634,-3.2652,-3.2651,-3.2671,-3.2669,-3.2699,-3.2696,-3.2696,-3.2694,-3.2713,-3.2711,-3.278,-3.2788,-3.2731,-3.2732,-3.2732,0,-3.2552,-3.2572,-3.2583,-3.2593,-3.26,-3.2618,-3.2628,-3.2625,-3.2636,-3.2649,-3.2662,-3.2679,-3.2692,-3.2721,-3.2723,-3.2738,-3.2733,-3.2757,-3.2735,-3.2735,-3.2731,-3.2729,-3.273,-3.276,-3.2761,-3.2761,-3.2762,0,-3.2609,-3.2608,-3.2624,-3.264,-3.2652,-3.2664,-3.2675,-3.2684,-3.2682,-3.2695,-3.2713,-3.2723,-3.2743,-3.2759,-3.2773,-3.2777,-3.2769,-3.2769,-3.2774,-3.2774,-3.2772,-3.2771,-3.2705,-3.2767,-3.2766,-3.2766,-3.2766,-3.2765,-3.265,-3.2665,-3.2675,-3.2692,-3.27,-3.271,-3.2725,-3.2728,-3.2743,-3.2759,-3.2756,-3.2775,-3.2784,-3.2802,-3.2807,-3.2822,-3.2813,-3.2821,-3.2823,-3.2824,-3.2825,-3.2771,-3.2825,-3.2824,-3.2824,-3.2824,-3.2824,0,-3.2704,-3.2709,-3.2725,-3.274,-3.2753,-3.2745,-3.2756,-3.2767,-3.2785,-3.2794,-3.2807,-3.2826,-3.2842,-3.2845,-3.2859,-3.287,-3.2866,-3.2874,-3.2872,-3.2872,-3.2833,-3.2826,-3.2876,-3.2876,-3.2876,-3.2876,-3.2876,-3.2876,-3.2733,-3.2759,-3.2759,-3.2788,-3.2793,-3.2812,-3.2819,-3.2828,-3.2834,-3.2857,-3.2869,-3.2872,-3.2878,-3.2892,-3.2905,-3.2906,-3.2911,-3.2919,-3.2918,-3.2881,-3.2875,-3.287,-3.2864,-3.2921,-3.2921,-3.2956,-3.2956,-3.2956]}]]